Location: Cucq
(50.4773°N, 1.6202°E)
Time: 06:32:50
(UTC+00:00)

Cosmos 2263 Rocket - Pass Details

Date: 07 August 2020
Orbit: 823 x 848 km, 71.0° (Epoch: 23 September)

Event Time Altitude Azimuth Distance (km) Brightness Sun altitude
Exits shadow 02:24:24 - 159° (SSE) 2,888 4.7 -16.0°
Reaches altitude 10° 02:25:55 10° 151° (SSE) 2,423 4.3 -15.9°
Maximum altitude 02:30:04 22° 102° (ESE) 1,728 4.1 -15.5°
Drops below altitude 10° 02:34:14 10° 53° (NE) 2,432 5.9 -15.1°
Sets 02:37:09 0° 39° (NE) 3,370 7.3 -14.8°
